Meteo Giornale » Osservazioni meteo Gran Bretagna » Warton Airport

ore: 16:50 - Osservazioni Meteo Warton Airport
Lat. 53° 45' N Lon. 2° 53' W Alt. 17 metri s.l.m.

nuvoloso

18 °C

Nuvoloso

Temp. 24 Ore

12 °C

19 °C

Ovest

31.5 Km/h

Dew point 13 °C

Umidità 72 %

Visibilità  10 Km

Il sole sorge alle ore 06:20

Il sole tramonta alle ore 20:02

Data e Ora Cielo e Fenomeni T °C DP °C Um. % Pres. hPa Vis. km Vento km/h
Oggi h: 16:50 nuvoloso Nuvoloso 18 13 72 1017 10 O 31.5
Oggi h: 16:20 nuvoloso Nuvoloso 19 14 72 1017 10 O 29.6
Oggi h: 15:50 nuvoloso Nuvoloso 18 13 72 1017 10 O 31.5
Oggi h: 15:20 nuvoloso Nuvoloso 19 13 68 1017 10 O 35.2
Oggi h: 14:50 nuvoloso Nuvoloso 18 13 72 1017 10 O 33.3
Oggi h: 14:20 nuvoloso Nuvoloso 19 13 68 1017 10 O 31.5
Oggi h: 13:50 molto_nuvoloso Molto Nuvoloso 19 13 68 1017 10 O 33.3
Oggi h: 13:20 molto_nuvoloso Molto Nuvoloso 19 13 68 1017 10 O 35.2
Oggi h: 12:50 molto_nuvoloso Molto Nuvoloso 19 13 68 1017 10 O 29.6
Oggi h: 12:20 nuvoloso Nuvoloso 19 13 68 1017 10 O/SO 27.8
Oggi h: 11:50 nuvoloso Nuvoloso 18 11 63 1017 10 O/SO 25.9
Oggi h: 11:20 nuvoloso Nuvoloso 18 12 67 1017 10 O/SO 25.9
Oggi h: 10:50 poco_nuvoloso Poco Nuvoloso 17 11 67 1017 10 O/SO 24
Oggi h: 10:20 poco_nuvoloso Poco Nuvoloso 17 12 72 1017 10 O/SO 22.2
Oggi h: 09:50 poco_nuvoloso Poco Nuvoloso 16 11 72 1017 10 O/SO 22.2
Oggi h: 09:20 poco_nuvoloso Poco Nuvoloso 16 11 72 1017 10 SO 14.8
Oggi h: 08:50 poco_nuvoloso Poco Nuvoloso 16 12 77 1017 10 S/SO 13
Oggi h: 08:20 poco_nuvoloso Poco Nuvoloso 16 12 77 1017 10 S/SO 11.1
Oggi h: 07:50 poco_nuvoloso Poco Nuvoloso 14 12 87 1017 10 S 9.3
Oggi h: 07:20 nuvoloso Nuvoloso 12 11 93 1017 10 S 11.1
Oggi h: 06:50 nuvoloso Nuvoloso 12 10 87 1017 10 S/SO 13
Ieri h: 18:50 nuvoloso Nuvoloso 16 11 72 1015 10 O/NO 13
Ieri h: 18:20 nuvoloso Nuvoloso 16 11 72 1015 10 O/NO 16.7
Ieri h: 17:50 nuvoloso Nuvoloso 16 11 72 1014 10 O/NO 18.5